Powrót do katalogu

IRIDIUM 33 DEB

AktywnyPO
NORAD 34508·DEBRIS·🇺🇸 United States

Wystrzelony Sep 14, 1997 z Baikonur Cosmodrome

Loading…

Następne Przeloty (najbliższe 24 godziny)

TLE

ŚwieżeSource: Space-Track

Epoka: Sep 14, 2026, 04:20 UTC

1 34508U 97051GZ  26257.18071707  .00001736  00000-0  53245-3 0  9994
2 34508  86.3751 345.6701 0062022 349.7291  10.2636 14.40080436912713

Śledź IRIDIUM 33 DEB w czasie rzeczywistym z AllMySat

Download on the App Store